This is the latest recevied weather packets stored in our database for station/object KC8BSD. If no packets are shown the sender has not sent any weather packets the latest 10 day(s).
| Time | Temp. | Humidity | Pressure | Rain* | Wind** | Luminosity | Snow |
|---|---|---|---|---|---|---|---|
| 1777985361 | 15° C | 59% | 1005.2 hPa | 0 mm | - | 307 W/m² | - |
| 1777985058 | 15° C | 58% | 1005.1 hPa | 0 mm | - | 264 W/m² | - |
| 1777984754 | 15° C | 60% | 1005.3 hPa | 0 mm | - | 230 W/m² | - |
| 1777984451 | 15° C | 61% | 1005.5 hPa | 0 mm | - | 210 W/m² | - |
| 1777984146 | 15° C | 63% | 1005 hPa | 0 mm | - | 200 W/m² | - |
| 1777983844 | 14.44° C | 65% | 1005 hPa | 0 mm | - | 170 W/m² | - |
| 1777983541 | 15° C | 67% | 1005.1 hPa | 0 mm | - | 134 W/m² | - |
| 1777983238 | 15° C | 69% | 1005.3 hPa | 0 mm | - | 145 W/m² | - |
| 1777982933 | 14.44° C | 70% | 1005.1 hPa | 0 mm | - | 139 W/m² | - |
| 1777982630 | 13.89° C | 72% | 1005.2 hPa | 0 mm | - | 119 W/m² | - |
| 1777982329 | 13.89° C | 76% | 1005 hPa | 0 mm | - | 110 W/m² | - |
| 1777982026 | 13.89° C | 77% | 1005.2 hPa | 0 mm | - | 96 W/m² | - |
| 1777981724 | 13.33° C | 79% | 1005 hPa | 0 mm | - | 84 W/m² | - |
| 1777981420 | 13.33° C | 82% | 1005 hPa | 0 mm | - | 91 W/m² | - |
| 1777981116 | 12.78° C | 84% | 1004.9 hPa | 0 mm | - | 78 W/m² | - |
| 1777980813 | 12.78° C | 85% | 1005.1 hPa | 0 mm | - | 44 W/m² | - |
| 1777980509 | 12.78° C | 85% | 1004.7 hPa | 0 mm | - | 29 W/m² | - |
| 1777980206 | 12.78° C | 86% | 1004.7 hPa | 0 mm | - | 26 W/m² | - |
| 1777979902 | 12.78° C | 86% | 1004.5 hPa | 0 mm | - | 22 W/m² | - |
| 1777979598 | 12.78° C | 86% | 1004.2 hPa | 0 mm | - | 20 W/m² | - |
| 1777979294 | 12.78° C | 86% | 1004.2 hPa | 0 mm | - | 23 W/m² | - |
| 1777978991 | 12.78° C | 86% | 1003.9 hPa | 0 mm | - | 24 W/m² | - |
| 1777978688 | 12.78° C | 86% | 1004.1 hPa | 0 mm | - | 18 W/m² | - |
| 1777978384 | 12.78° C | 87% | 1004 hPa | 0 mm | - | 16 W/m² | - |
| 1777978080 | 12.78° C | 88% | 1003.9 hPa | 0 mm | - | 12 W/m² | - |
* Rain latest hour (hover to see other rain measurements)
** Current wind speed in m/s (hover to see current wind gust speed)